Location: Poughquag
(41.6090°N, 73.6820°W)
Time: 03:33:04
(UTC-04:00)

Tiros 1 - Visible Passes

Search period start: 15 October 2019 00:00
Search period end: 25 October 2019 00:00
Orbit: 630 x 664 km, 48.4° (Epoch: 14 October)

Date Brightness Start Highest point End Pass type
(mag) Time Alt. Az. Time Alt. Az. Time Alt. Az.
15 Oct 9.5 03:54:22 21° E 03:54:22 21° E 03:56:04 10° ENE visible
15 Oct 7.4 05:32:02 37° W 05:33:42 56° NNW 05:38:27 10° ENE visible
16 Oct 8.6 04:19:28 36° ENE 04:19:28 36° ENE 04:22:20 10° ENE visible
16 Oct 7.9 05:57:09 20° WNW 06:00:03 41° N 06:04:37 10° ENE visible
17 Oct 7.8 04:44:32 50° NNE 04:44:32 50° NNE 04:48:25 10° ENE visible
17 Oct 8.2 06:22:12 11° WNW 06:26:29 36° N 06:30:57 10° ENE visible
18 Oct 10.2 03:31:54 12° ENE 03:31:54 12° ENE 03:32:17 10° ENE visible
18 Oct 7.8 05:09:34 41° NNW 05:09:59 42° NNW 05:14:34 10° ENE visible
19 Oct 9.6 03:56:54 20° NE 03:56:54 20° NE 03:58:23 10° ENE visible
19 Oct 8.2 05:34:34 27° NW 05:36:25 36° N 05:40:53 10° ENE visible
20 Oct 8.9 04:21:54 28° NE 04:21:54 28° NE 04:24:31 10° ENE visible
20 Oct 8.2 05:59:34 17° NW 06:02:52 38° N 06:07:22 10° ENE visible
21 Oct 8.4 04:46:54 35° NNE 04:46:54 35° NNE 04:50:49 10° ENE visible
21 Oct 7.9 06:24:34 10° WNW 06:29:15 49° NNE 06:33:56 10° E visible
22 Oct 10.3 03:34:15 11° ENE 03:34:15 11° ENE 03:34:28 10° ENE visible
22 Oct 8.1 05:11:55 35° NNW 05:12:47 38° N 05:17:17 10° ENE visible
23 Oct 9.7 03:59:17 18° NE 03:59:17 18° NE 04:00:44 10° ENE visible
23 Oct 7.9 05:36:57 27° NW 05:39:11 47° NNE 05:43:51 10° E visible
24 Oct 9.0 04:24:22 29° NE 04:24:22 29° NE 04:27:12 10° ENE visible
24 Oct 7.3 06:02:02 19° WNW 06:05:27 72° NNE 06:10:16 10° ESE visible
